This is the latest recevied weather packets stored in our database for station/object AA1QD. If no packets are shown the sender has not sent any weather packets the latest 10 day(s).
| Time | Temp. | Humidity | Pressure | Rain* | Wind** | Luminosity | Snow |
|---|---|---|---|---|---|---|---|
| 1778015366 | 27.22° C | 37% | 999.5 hPa | 0 mm | - | - | - |
| 1778011766 | 27.78° C | 34% | 999.5 hPa | 0 mm | - | - | - |
| 1778008167 | 28.33° C | 35% | 1000.4 hPa | 0 mm | - | - | - |
| 1778004566 | 27.78° C | 36% | 1001.1 hPa | 0 mm | - | - | - |
| 1778000966 | 27.22° C | 41% | 1001.9 hPa | 0 mm | - | - | - |
| 1777997366 | 25° C | 47% | 1003.4 hPa | 0 mm | - | - | - |
| 1777993766 | 23.33° C | 49% | 1004.2 hPa | 0 mm | - | - | - |
| 1777986566 | 18.89° C | 57% | 1004.5 hPa | 0 mm | - | - | - |
| 1777982968 | 16.11° C | 62% | 1005 hPa | 0 mm | - | - | - |
| 1777979366 | 12.78° C | 71% | 1004.7 hPa | 0 mm | - | - | - |
| 1777975766 | 10° C | 77% | 1004.9 hPa | 0 mm | - | - | - |
| 1777846830 | 8.89° C | 54% | 1003.1 hPa | 0 mm | - | - | - |
| 1777843230 | 8.89° C | 54% | 1002.6 hPa | 0 mm | - | - | - |
| 1777839631 | 9.44° C | 54% | 1002.3 hPa | 0 mm | - | - | - |
| 1777836031 | 10.56° C | 51% | 1002.1 hPa | 0 mm | - | - | - |
| 1777832430 | 9.44° C | 56% | 1002.3 hPa | 0 mm | - | - | - |
| 1777828831 | 8.89° C | 63% | 1002.1 hPa | 0 mm | - | - | - |
| 1777825230 | 7.78° C | 79% | 1002.4 hPa | 0 mm | - | - | - |
| 1777821630 | 5.56° C | 84% | 1002.7 hPa | 0.25 mm | - | - | - |
| 1777818031 | 6.67° C | 83% | 1002.9 hPa | 0 mm | - | - | - |
| 1777814430 | 6.11° C | 84% | 1003.3 hPa | 0 mm | - | - | - |
| 1777810833 | 5.56° C | 83% | 1003.6 hPa | 0 mm | - | - | - |
| 1777807231 | 4.44° C | 77% | 1003.8 hPa | 0 mm | - | - | - |
| 1777803631 | 4.44° C | 76% | 1003.9 hPa | 0 mm | - | - | - |
| 1777762197 | 7.22° C | 76% | 1007 hPa | 0 mm | - | - | - |
* Rain latest hour (hover to see other rain measurements)
** Current wind speed in m/s (hover to see current wind gust speed)